Dewpoint
28 29 30 29 28 28 28 28 26 21 16 17 27 30 40 41 39 36 35 34 33 33 34 34 37 39 41 44 49 52 50 50 50 51 54 54 53 52 54 53 53 54 56 56
30 21 20 19 19 16 15 12 11 12 19 36 41 40 42 39 36 34 33 32 32 31 32 32 34 35 37 39 41 44 44 44 44 45 46 45 44 44 44 43 43 43 42 41
26 25 18 16 15 11 16 20 26 29 34 37 37 35 35 36 34 33 33 32 32 31 31 32 33 34 34 36 37 38 39 40 40 40 40 39 39 38 38 38 37 37 37 37
24 20 15 21 18 17 15 29 29 29 32 37 34 32 32 33 33 32 32 33 34 32 31 33 33 34 34 35 35 35 36 37 37 37 36 36 35 34 34 34 34 34 34 34
22 23 12 16 22 23 24 31 33 32 33 35 33 31 31 33 32 31 32 32 32 33 33 33 32 33 33 33 33 34 34 35 36 35 34 34 33 32 32 32 31 31 32 32
21 11 11 27 25 26 26 25 34 33 33 33 36 34 30 32 32 31 32 32 31 32 32 33 33 34 32 31 32 32 32 34 34 35 34 33 33 33 32 32 30 30 30 31
22 17 20 29 28 29 21 31 36 34 32 30 30 30 30 32 32 32 32 32 33 32 31 31 33 33 31 30 30 32 33 34 33 34 34 34 34 34 34 33 32 31 30 30
20 18 18 33 29 30 33 36 35 32 30 28 28 29 30 31 32 32 31 32 32 31 31 32 32 32 30 30 32 30 31 30 31 32 33 33 34 34 33 33 32 32 31 30
32 32 34 33 33 33 34 34 34 31 31 30 30 30 30 30 31 30 29 28 27 26 27 28 29 31 29 30 29 29 29 29 29 28 28 30 31 31 31 31 31 31 30 30
31 32 32 32 32 31 31 31 32 33 31 31 29 30 30 30 30 29 29 28 28 26 25 25 26 26 27 29 30 30 28 26 25 25 26 25 25 25 26 29 29 29 29 28
31 32 31 30 30 31 30 30 31 31 32 31 30 29 29 28 27 27 24 23 22 23 23 23 24 25 26 26 25 25 25 25 26 25 23 23 24 24 23 25 26 26 26 26
29 31 30 29 30 31 30 31 29 28 28 30 28 26 26 26 27 27 26 25 23 22 22 23 24 24 25 27 28 29 28 26 26 26 25 23 21 20 22 22 22 22 23 24
31 31 32 32 31 32 31 28 27 27 28 26 27 27 25 24 25 26 25 23 23 22 22 22 23 24 25 26 28 28 28 27 26 27 26 26 25 23 20 19 18 18 19 19
33 33 30 32 29 29 26 25 25 24 25 26 25 25 24 22 20 19 19 19 19 19 20 20 20 22 24 26 26 26 26 25 25 25 25 24 24 23 23 22 19 16 14 14
33 33 32 31 29 26 24 23 21 20 20 20 20 21 21 20 19 19 17 16 14 14 15 16 17 20 23 23 23 24 25 24 24 24 23 22 21 20 19 19 18 17 17 14
32 32 31 30 27 24 23 23 22 22 22 22 22 21 21 19 17 15 13 14 13 14 15 15 16 18 20 23 24 23 21 20 21 22 21 20 19 17 16 16 16 14 13 13
29 26 25 24 23 23 22 22 21 21 20 19 19 18 16 15 14 13 13 14 15 16 17 16 16 17 19 20 22 21 22 19 17 19 18 17 17 16 16 16 14 12 10 11
28 29 27 25 23 22 21 21 20 20 20 19 19 17 16 15 14 13 14 14 14 14 15 15 16 17 16 18 18 17 17 16 16 16 16 17 15 14 15 14 12 12 13 11
25 24 23 22 22 21 21 20 20 18 18 18 16 14 13 13 13 13 14 14 14 15 14 14 13 13 12 14 14 15 16 17 14 13 13 13 16 14 15 15 14 14 12 12
22 22 22 21 21 20 19 18 18 16 15 13 12 10 9 9 11 11 12 12 13 13 14 12 12 10 9 8 12 12 15 16 12 13 14 14 16 16 14 9 11 13 14 13
21 20 19 18 18 18 18 17 16 13 12 13 12 10 10 9 8 10 14 13 13 11 10 8 7 7 5 7 7 16 15 15 15 14 15 15 16 14 14 13 13 13 13 12
20 18 18 18 18 18 17 15 14 13 12 10 9 10 10 11 10 10 10 12 10 9 9 10 8 6 5 10 11 14 12 12 12 13 13 13 13 13 13 12 11 11 11 11
19 19 18 18 17 16 15 15 14 13 12 11 11 14 14 12 11 12 13 8 9 9 9 12 6 6 6 14 14 13 12 11 11 11 12 12 11 11 11 10 10 10 9 9
19 18 18 17 16 14 13 13 12 13 14 13 13 13 14 16 18 12 11 9 6 11 12 12 9 5 5 13 12 12 11 12 11 12 10 5 11 10 9 9 8 8 8 7
18 17 16 15 12 13 12 12 12 11 12 11 10 10 11 11 16 15 16 14 6 8 14 8 6 6 12 12 12 11 11 11 12 10 9 10 9 9 9 9 8 8 8 8
15 16 16 15 14 14 14 12 14 15 14 17 17 19 20 17 15 12 13 10 10 10 12 17 15 14 13 12 12 11 11 10 11 11 10 8 9 8 8 7 8 7 7 8
18 17 15 14 14 14 15 14 17 17 19 18 17 22 17 18 17 12 12 14 15 15 14 14 15 15 14 13 11 12 12 12 12 10 10 8 8 9 9 9 8 7 8 7
Lifted_Index
-1 -0 -0 -0 0 0 0 1 1 1 1 1 1 1 1 2 3 3 3 2 1 0 -0 -0 -0 -0 0 0 0 0 1 1 1 1 1 2 2 2 2 2 2 2 2 2
-1 -0 0 0 0 1 1 1 1 1 1 1 1 1 1 2 3 3 3 2 2 1 1 1 0 0 0 0 1 1 1 1 1 1 2 2 2 2 2 3 3 3 2 2
-0 0 0 1 1 1 1 1 1 1 1 1 1 1 2 2 3 3 3 3 3 3 2 2 2 2 2 2 1 1 1 1 1 1 1 2 2 2 2 3 3 3 2 2
0 1 1 1 1 1 1 1 1 1 2 2 3 3 3 3 3 4 5 5 6 5 5 5 6 5 5 4 3 2 1 1 1 1 1 1 2 2 3 3 3 2 2 2
1 1 1 1 1 1 1 1 1 2 3 3 3 3 3 4 5 6 6 7 8 8 8 8 9 9 8 7 6 4 4 3 4 4 3 3 3 3 4 4 4 3 3 3
1 1 1 1 1 1 1 1 2 3 4 4 4 3 4 5 7 7 8 9 9 9 9 10 11 11 10 9 8 8 7 8 8 8 7 6 6 6 7 6 6 5 5 6
0 0 0 1 1 1 1 2 3 4 4 4 4 4 5 7 8 8 9 9 10 10 10 10 11 12 11 11 10 10 11 11 11 11 10 10 10 10 10 9 8 8 8 9
-0 0 1 1 2 2 2 3 4 4 5 5 5 5 6 8 8 9 9 10 10 10 10 11 11 12 11 12 12 12 12 12 12 12 12 12 12 12 12 11 10 10 11 11
-0 0 1 2 3 3 4 4 4 5 5 6 6 7 8 8 9 9 9 10 10 10 10 10 11 12 12 13 14 14 13 13 13 13 13 13 13 13 13 13 12 12 12 13
0 1 2 3 3 4 4 4 5 5 6 7 7 8 8 8 9 9 9 9 10 10 10 10 12 12 13 14 15 15 14 13 14 14 14 14 15 14 14 14 14 13 13 13
1 2 3 3 4 4 4 5 5 6 6 7 7 8 8 8 9 9 9 9 10 10 10 11 12 13 14 15 16 15 14 14 14 14 15 15 15 15 16 16 16 15 15 15
2 3 3 4 4 4 5 5 6 6 6 7 7 8 8 8 9 9 9 10 10 11 11 12 13 14 15 16 16 15 15 15 15 15 15 15 15 16 17 18 18 18 18 17
3 4 4 5 5 5 5 6 6 6 6 7 8 9 9 9 10 10 10 11 11 12 12 13 14 15 16 16 16 16 16 16 16 16 16 17 17 17 18 19 20 20 21 21
5 5 5 5 5 6 6 6 6 6 7 7 8 9 10 10 10 11 12 12 13 13 13 14 14 15 17 18 18 18 18 18 18 18 19 19 19 19 19 20 20 21 22 23
5 5 5 6 6 6 7 6 6 6 7 8 9 10 10 11 11 11 12 13 13 14 14 15 16 17 19 20 20 20 20 20 20 20 20 20 20 20 20 20 20 21 22 22
5 5 5 6 6 6 7 6 6 6 7 8 9 10 11 11 12 12 13 14 14 14 15 17 18 19 21 21 21 21 21 21 21 21 21 21 21 21 21 21 21 21 21 22
5 6 6 6 6 7 7 7 8 8 8 9 10 11 12 12 12 13 14 15 15 16 18 19 20 21 21 22 21 21 21 21 21 21 21 21 21 21 21 21 21 21 22 23
7 7 7 8 8 8 8 9 9 10 10 11 12 12 13 13 13 14 15 16 17 18 19 20 21 22 22 22 22 22 22 22 22 22 22 22 22 22 22 22 22 22 23 23
8 9 9 9 9 10 10 10 11 12 12 13 13 13 13 14 15 16 17 17 18 18 20 21 22 22 22 22 23 22 22 22 22 22 22 22 22 22 22 22 22 23 23 23
9 10 10 10 11 11 11 12 12 13 13 14 14 14 15 16 17 17 18 18 18 19 21 22 22 22 22 23 23 23 22 22 22 22 22 22 22 22 22 22 22 22 23 23
10 10 11 11 11 12 13 13 13 14 14 15 15 15 16 17 18 18 18 18 19 21 22 22 22 22 23 23 23 23 22 22 22 22 22 22 22 22 22 22 22 22 23 23
10 11 11 12 12 13 14 14 15 15 15 16 16 17 17 17 18 18 18 19 20 21 22 22 22 22 22 23 23 22 22 22 21 21 21 21 21 21 21 22 22 22 23 23
11 12 12 13 13 14 14 15 16 17 17 17 18 18 18 18 18 18 19 19 20 21 21 21 21 21 21 22 22 22 21 21 21 21 21 21 21 21 22 22 22 22 23 23
12 13 13 14 15 15 15 16 17 18 18 18 18 19 19 19 19 19 19 20 20 20 20 21 21 21 21 21 21 21 21 21 21 21 21 21 21 22 22 22 22 22 22 22
14 14 15 16 16 16 17 18 18 18 18 18 19 19 19 19 19 19 20 20 20 20 20 20 20 20 20 21 21 21 21 21 21 21 21 21 21 21 21 21 21 21 21 21
15 15 16 16 17 17 18 18 18 18 18 18 18 19 19 19 19 19 20 20 20 20 20 20 20 20 20 20 20 20 20 20 20 20 20 20 20 20 20 20 20 21 21 21
15 15 16 17 18 18 18 18 18 18 18 18 18 18 19 19 19 19 19 19 19 19 19 19 19 19 19 19 19 19 19 19 19 19 19 19 20 20 20 20 20 21 21 21